Location: Oberkirch
(48.5323°N, 8.0787°E)
Time: 21:14:47
(UTC+00:00)

Altair - All Passes

Search period start: 18 February 2026 00:00
Search period end: 28 February 2026 00:00
Orbit: 1502 x 1682 km, 47.2° (Epoch: 18 February)

Date Brightness Start Highest point End Pass type
(mag) Time Alt. Az. Time Alt. Az. Time Alt. Az.
18 Feb - 03:01:28 10° SSW 03:09:18 33° SE 03:17:18 10° ENE visible
18 Feb - 05:03:47 10° WSW 05:12:55 70° SSE 05:22:22 10° E visible
18 Feb - 07:08:07 10° W 07:17:29 84° S 07:27:15 10° E daylight
18 Feb - 09:12:42 10° WNW 09:21:56 59° SSW 09:31:32 10° SE daylight
18 Feb - 11:18:02 10° W 11:25:19 25° SW 11:32:48 10° S daylight
19 Feb - 02:36:35 10° SSW 02:44:12 31° SE 02:51:58 10° E visible
19 Feb - 04:38:38 10° WSW 04:47:43 67° SSE 04:57:06 10° ENE visible
19 Feb - 06:42:54 10° W 06:52:15 84° S 07:01:58 10° E daylight
19 Feb - 08:47:29 10° WNW 08:56:44 62° SSW 09:06:21 10° SE daylight
19 Feb - 10:52:40 10° W 11:00:13 27° SW 11:07:57 10° S daylight
20 Feb - 02:11:44 10° S 02:19:07 28° SE 02:26:37 10° E visible
20 Feb - 04:13:29 10° SW 04:22:31 65° SSE 04:31:50 10° ENE visible
20 Feb - 06:17:41 10° W 06:27:00 84° S 06:36:41 10° E daylight
20 Feb - 08:22:16 10° WNW 08:31:32 64° SSW 08:41:10 10° SE daylight
20 Feb - 10:27:19 10° W 10:35:05 29° SW 10:43:05 10° S daylight
21 Feb - 01:46:55 10° S 01:54:02 26° SE 02:01:13 10° E visible
21 Feb - 03:48:21 10° SW 03:57:21 62° SSE 04:06:35 10° ENE visible
21 Feb - 05:52:28 10° W 06:01:46 84° S 06:11:24 10° E visible
21 Feb - 07:57:03 10° WNW 08:06:20 67° SSW 08:15:58 10° ESE daylight
21 Feb - 10:02:00 10° W 10:09:58 31° SW 10:18:11 10° SSE daylight
22 Feb - 01:22:09 10° S 01:28:57 24° SE 01:35:49 10° E visible
22 Feb - 03:23:15 10° SW 03:32:10 59° SSE 03:41:19 10° ENE visible
22 Feb - 05:27:16 10° W 05:36:32 84° S 05:46:07 10° E visible
22 Feb - 07:31:50 10° W 07:41:07 69° SSW 07:50:45 10° ESE daylight
22 Feb - 09:36:42 10° W 09:44:51 33° SW 09:53:14 10° SSE daylight
23 Feb - 00:57:26 10° S 01:03:53 22° SE 01:10:24 10° E visible
23 Feb - 02:58:09 10° SW 03:07:01 56° SSE 03:16:03 10° ENE visible
23 Feb - 05:02:03 10° W 05:11:18 83° S 05:20:52 10° E visible
23 Feb - 07:06:37 10° W 07:15:54 71° SSW 07:25:31 10° ESE daylight
23 Feb - 09:11:25 10° WNW 09:19:42 36° SW 09:28:16 10° SSE daylight
24 Feb - 00:32:46 10° S 00:38:50 20° SE 00:44:55 10° E visible
24 Feb - 02:33:03 10° SW 02:41:51 54° SSE 02:50:48 10° ENE visible
24 Feb - 04:36:51 10° WSW 04:46:04 82° S 04:55:36 10° E visible
24 Feb - 06:41:25 10° W 06:50:41 73° SSW 07:00:18 10° ESE daylight
24 Feb - 08:46:09 10° WNW 08:54:34 38° SW 09:03:16 10° SSE daylight
24 Feb - 10:55:36 10° WSW 10:57:09 10° WSW 10:58:44 10° SW daylight
25 Feb - 00:08:11 10° SSE 00:13:47 18° SE 00:19:23 10° E visible
25 Feb - 02:07:59 10° SW 02:16:41 51° SSE 02:25:33 10° ENE visible
25 Feb - 04:11:38 10° WSW 04:20:51 81° S 04:30:20 10° E visible
25 Feb - 06:16:12 10° W 06:25:28 75° SSW 06:35:03 10° ESE daylight
25 Feb - 08:20:53 10° WNW 08:29:25 41° SW 08:38:14 10° SSE daylight
25 Feb - 10:28:55 10° WSW 10:32:06 12° WSW 10:35:21 10° SW daylight
25 Feb - 23:43:41 10° SSE 23:48:44 16° SE 23:53:47 10° E visible
26 Feb - 01:42:56 10° SW 01:51:33 48° SSE 02:00:17 10° ENE visible
26 Feb - 03:46:26 10° WSW 03:55:38 80° S 04:05:03 10° E visible
26 Feb - 05:51:00 10° W 06:00:15 77° SSW 06:09:49 10° ESE daylight
26 Feb - 07:55:39 10° WNW 08:04:16 43° SW 08:13:11 10° SSE daylight
26 Feb - 10:02:54 10° W 10:07:03 14° SW 10:11:17 10° SSW daylight
26 Feb - 23:19:18 10° SSE 23:23:41 14° SE 23:28:04 10° E visible
27 Feb - 01:17:54 10° SSW 01:26:25 45° SE 01:35:01 10° ENE visible
27 Feb - 03:21:14 10° WSW 03:30:24 79° SSE 03:39:48 10° E visible
27 Feb - 05:25:47 10° W 05:35:01 79° SSW 05:44:34 10° ESE visible
27 Feb - 07:30:24 10° WNW 07:39:07 46° SW 07:48:08 10° SE daylight
27 Feb - 09:37:07 10° W 09:41:59 15° SW 09:46:58 10° SSW daylight
27 Feb - 22:55:08 10° SSE 22:58:39 13° SE 23:02:11 10° E night (unlit)
